Theta_e
324 324 325 326 326 325 324 323 323 324 324 324 322 322 321 321 320 310 305 314 322 328 324 314 312 312 311 308 311 305 295 292 294 297 299 302 302 304 307 309 313 316 313 317 323
324 324 324 325 325 325 325 325 324 324 322 324 323 322 320 320 310 305 314 325 329 328 313 312 309 311 305 304 307 301 294 294 298 299 297 301 303 303 302 306 309 312 318 322 323
322 324 324 324 324 325 325 324 324 324 323 323 323 321 320 316 302 298 320 322 326 324 316 316 313 309 300 302 303 299 295 298 299 303 303 302 301 303 302 301 308 311 316 320 320
320 321 323 323 324 324 324 324 324 323 323 322 322 320 319 313 284 310 323 323 330 320 314 313 310 303 299 297 301 297 302 300 302 304 303 300 304 301 302 303 306 310 320 320 320
319 319 320 321 322 323 323 323 324 323 322 322 322 320 311 300 301 314 323 324 323 317 309 310 305 303 298 298 299 298 300 302 303 303 302 304 302 302 303 304 309 318 320 319 320
317 318 318 319 320 321 322 323 323 323 322 322 321 319 304 290 306 315 317 318 315 313 309 311 308 307 301 299 297 300 299 300 302 302 301 301 301 303 304 304 305 316 316 316 318
316 316 317 318 319 320 321 322 322 322 322 321 321 311 302 296 309 309 312 314 315 313 310 313 311 306 305 300 303 301 298 299 299 300 300 301 298 299 305 304 304 304 309 316 317
315 315 316 317 317 319 320 321 321 321 322 322 320 307 298 309 309 308 309 307 314 314 312 312 311 307 305 305 302 298 297 291 296 298 300 300 290 298 304 302 303 302 300 302 304
314 314 315 317 317 317 319 319 320 321 321 321 309 302 295 312 304 307 307 307 311 311 310 311 309 303 302 295 291 292 286 290 293 298 295 297 290 298 301 299 299 299 299 300 300
313 313 314 315 316 317 317 318 318 317 318 314 310 300 301 297 303 305 305 305 307 306 304 302 303 295 293 292 284 286 288 288 287 291 291 290 292 297 298 297 298 298 298 298 299
312 313 313 314 315 316 313 309 303 301 307 301 299 297 299 303 305 302 305 303 304 300 293 298 294 291 293 296 291 290 288 285 287 293 290 288 288 293 295 296 296 295 297 297 298
311 312 313 314 315 315 310 301 303 305 297 306 302 300 303 303 296 299 305 297 298 292 295 293 290 294 296 296 293 290 287 285 289 291 291 288 288 291 293 293 295 298 298 299 297
311 311 312 312 313 310 304 302 310 309 296 300 302 299 300 301 295 296 300 298 294 291 292 287 288 296 295 293 292 291 287 285 286 289 289 286 284 288 290 292 294 296 298 298 297
310 311 311 311 305 304 301 307 309 309 288 290 296 299 301 301 293 301 301 299 295 291 292 291 291 293 291 291 293 288 293 291 289 287 281 286 277 283 287 288 290 292 292 294 294
310 310 311 311 302 300 303 308 308 303 275 292 294 305 302 296 295 295 302 298 291 290 292 286 289 289 290 291 294 289 294 292 289 284 282 281 280 282 285 285 289 293 291 291 292
309 310 310 306 302 304 307 309 304 285 276 287 295 294 293 295 295 296 296 298 297 292 290 287 292 291 290 292 295 294 289 288 286 285 277 283 281 279 282 286 286 288 290 292 292
309 309 307 304 296 304 307 300 282 277 287 284 288 292 292 290 292 293 290 289 286 283 284 287 287 290 293 289 291 289 286 274 276 277 275 281 281 283 287 288 287 288 290 291 293
308 307 305 303 303 303 299 287 275 281 280 289 288 291 287 291 290 291 289 286 290 285 281 280 279 287 291 288 286 289 287 277 270 273 274 281 278 281 289 292 291 290 290 292 293
308 302 300 301 303 302 290 278 278 279 285 285 288 285 286 289 289 289 288 287 288 288 281 278 279 287 289 291 291 286 284 287 278 270 272 277 280 284 289 288 288 289 290 291 294
300 297 297 302 303 297 285 281 279 284 286 287 281 285 283 285 286 286 286 289 288 290 287 284 278 285 289 291 290 289 291 281 277 266 267 274 276 278 282 286 287 289 289 291 294
297 289 296 302 299 286 279 279 279 285 287 286 284 284 284 284 286 285 285 289 291 289 290 286 281 279 286 285 285 286 285 284 284 279 273 270 274 282 287 287 287 289 290 292 293
294 284 297 298 283 284 278 275 283 282 287 283 284 287 283 286 286 286 285 287 293 291 286 287 283 278 281 286 290 290 287 287 280 277 279 277 277 283 285 286 287 288 291 292 291
287 285 297 295 279 278 268 272 280 280 282 281 280 284 287 286 283 287 288 292 293 290 288 288 282 277 277 284 285 284 288 288 286 281 279 275 279 285 284 285 287 287 290 291 290
286 281 287 289 284 278 269 270 273 283 282 283 282 285 284 283 287 283 286 289 291 292 295 293 286 282 278 281 284 283 287 288 287 281 281 281 283 282 283 284 287 288 289 289 289
285 283 285 280 282 280 278 274 275 275 281 284 281 281 281 278 282 282 284 287 291 293 292 290 282 284 285 285 285 285 285 287 285 286 281 284 283 287 284 285 285 287 289 288 288
283 284 280 284 285 279 279 273 276 277 279 277 278 282 282 280 281 277 283 286 286 289 290 291 282 284 282 285 282 282 285 287 287 287 287 287 285 292 288 286 285 287 288 288 288
287 287 287 285 283 279 277 276 278 281 281 282 282 280 281 283 286 287 287 288 288 287 286 286 284 282 279 283 282 277 283 284 286 289 288 284 289 293 290 288 289 287 288 289 288
Wind_Speed
13 16 17 15 13 12 12 11 10 9 7 7 6 3 4 7 10 4 5 6 2 6 7 4 4 5 3 2 2 4 5 4 7 7 4 2 2 0 1 4 2 1 3 3 10
15 13 16 18 15 13 12 11 10 10 8 7 6 4 2 5 2 7 9 7 5 7 6 6 4 6 3 2 2 5 5 9 5 5 3 2 3 3 2 3 1 2 2 5 9
15 13 11 13 16 15 14 12 10 9 8 7 7 5 1 2 3 6 2 6 7 6 2 2 2 1 2 1 2 4 7 5 3 0 1 1 1 1 4 3 6 7 5 7 6
16 14 11 11 12 15 16 14 11 9 8 7 6 4 0 0 6 2 1 3 4 3 1 2 1 2 3 4 2 2 4 4 2 2 1 2 1 1 5 4 3 7 11 9 10
16 14 12 10 11 12 14 15 13 11 10 7 6 5 1 2 8 2 1 1 3 3 4 3 3 3 4 3 1 3 3 4 4 1 2 2 5 4 5 2 5 6 7 11 9
16 12 12 11 11 11 12 13 15 12 11 9 8 6 1 4 4 3 3 3 4 3 4 4 4 3 3 2 4 3 1 3 4 3 2 3 4 4 7 6 4 6 7 5 7
18 18 14 12 12 12 11 12 14 14 13 12 11 4 2 10 2 7 3 2 3 4 4 2 1 1 2 2 2 1 2 5 3 3 5 5 6 7 10 3 4 6 7 9 11
17 17 16 14 14 12 12 11 11 14 15 14 12 3 7 5 4 5 2 3 2 4 1 1 2 1 2 0 4 3 2 1 4 5 6 8 9 7 10 4 9 8 8 8 10
18 17 17 14 15 13 12 11 9 11 17 14 6 5 7 3 4 7 3 1 2 2 1 1 2 3 3 5 3 2 4 7 7 5 3 7 4 8 8 8 9 10 9 9 10
20 18 17 15 14 15 13 9 5 5 11 10 3 4 3 6 3 3 3 2 2 4 3 3 1 3 2 4 7 8 5 4 5 2 2 4 9 10 8 3 10 9 9 10 9
21 20 21 19 17 16 10 4 2 3 10 4 12 4 2 2 4 3 4 4 1 3 6 4 7 16 13 14 2 4 3 4 3 5 5 8 9 14 8 6 12 9 12 12 13
23 21 21 21 19 20 11 11 9 1 6 13 15 10 3 6 4 4 9 6 5 6 5 3 18 8 7 4 6 3 4 5 4 2 3 6 9 11 7 7 10 15 16 18 7
23 22 22 21 19 14 18 24 4 1 3 7 7 13 4 7 7 12 14 5 4 5 10 6 0 12 8 5 8 9 7 2 2 5 2 5 8 9 6 5 9 15 19 14 15
23 22 23 22 11 10 17 12 7 3 7 10 9 10 3 5 5 6 12 8 5 12 4 9 3 9 5 14 10 14 9 6 3 2 4 3 10 6 6 9 8 15 10 14 11
24 25 26 25 5 13 8 10 8 4 17 9 13 11 13 12 10 7 11 4 10 9 9 8 9 9 16 12 12 5 7 9 5 2 4 1 3 7 3 8 17 17 11 11 11
26 27 26 17 3 5 10 14 10 14 15 10 12 17 13 15 6 6 13 3 4 5 2 6 1 5 6 5 14 5 6 5 4 3 6 9 7 7 6 9 5 6 8 9 8
26 25 24 13 9 5 13 8 15 21 6 10 12 17 25 21 18 13 18 13 10 10 15 3 10 3 7 6 4 5 7 3 1 4 8 1 8 15 12 12 7 10 9 8 4
28 27 21 9 12 14 3 11 18 24 14 1 11 20 26 19 17 17 20 17 18 7 6 13 8 14 7 8 7 19 12 8 11 7 4 4 11 9 13 13 9 9 6 5 5
29 15 13 9 15 11 9 14 17 5 19 9 11 16 20 21 11 17 19 25 23 18 11 8 9 4 4 7 13 7 15 8 7 3 3 6 8 10 13 13 11 9 5 8 6
15 12 12 18 17 11 13 23 6 2 4 21 16 9 19 25 19 20 20 22 15 24 1 7 2 5 16 2 6 11 13 6 1 5 5 5 6 9 4 12 7 5 9 8 6
11 10 11 19 12 5 13 7 4 3 3 9 24 18 12 10 20 11 11 9 27 23 14 7 5 4 10 14 18 6 11 5 6 5 5 2 9 10 19 13 11 10 8 10 10
10 9 17 17 9 4 7 8 8 6 3 5 1 13 9 13 19 19 20 17 22 19 26 11 5 5 12 4 7 22 21 24 9 9 6 1 11 4 9 9 6 9 9 6 7
12 3 15 17 14 7 1 5 7 6 8 9 7 4 5 5 8 16 12 13 16 21 20 15 7 5 2 4 5 8 16 13 13 2 12 6 14 1 3 5 8 9 10 10 8
8 7 9 10 4 10 8 8 9 4 7 7 7 6 3 7 5 7 13 7 12 26 21 21 14 18 18 17 10 12 18 22 21 14 19 16 27 5 3 5 6 6 6 10 10
4 6 5 19 21 18 15 14 15 7 4 8 2 7 11 3 11 4 2 1 7 19 17 8 13 20 25 17 13 17 22 25 23 29 20 29 23 25 9 8 6 5 7 9 8
6 10 2 13 17 12 19 13 25 11 16 10 11 19 18 15 11 9 6 7 7 6 14 18 8 15 23 22 12 10 19 22 24 29 29 25 20 25 9 8 5 6 6 8 10
2 3 10 18 19 18 25 22 22 16 6 12 21 3 11 18 20 13 1 4 1 4 15 13 9 6 21 23 18 11 18 24 26 25 24 24 33 31 19 15 13 10 13 14 10
Wind_Direction
250 243 236 224 220 221 226 227 226 208 222 225 225 217 310 328 327 336 267 238 296 340 325 313 38 348 29 50 49 119 72 200 208 165 224 199 129 255 3 106 54 67 147 322 133
251 241 237 238 222 218 216 220 219 215 218 215 208 209 272 339 316 264 248 277 315 342 7 25 15 355 31 349 35 99 143 217 202 193 193 308 169 168 120 121 348 322 33 93 130
242 244 233 237 236 220 212 214 212 205 212 216 212 210 259 344 327 248 244 262 266 287 335 349 326 12 108 29 216 162 188 183 192 123 307 198 212 126 154 238 204 203 170 159 158
231 233 235 234 235 238 222 206 205 199 203 209 210 198 187 307 232 320 271 311 230 211 240 334 312 121 147 196 210 177 232 176 166 98 39 284 325 248 179 217 306 247 168 169 176
226 217 223 235 239 238 235 220 202 195 194 194 189 174 120 242 254 218 261 24 95 147 194 197 176 142 178 202 181 194 253 168 167 201 245 329 261 262 241 236 30 89 154 181 188
245 212 215 218 232 240 237 232 216 191 188 185 175 143 175 223 288 248 176 130 154 171 198 169 206 209 178 219 177 215 257 309 207 219 252 203 254 154 279 159 82 136 205 229 222
237 229 210 211 224 230 235 234 231 201 183 183 177 128 227 240 56 357 266 237 172 185 171 206 193 225 142 161 184 1 307 343 230 192 229 154 270 216 239 133 258 229 215 219 226
235 235 225 203 217 226 225 230 232 215 186 181 165 109 248 234 262 319 264 287 241 215 192 263 309 227 171 356 33 123 48 77 296 161 251 137 257 240 246 262 256 244 238 244 244
224 228 223 199 208 216 223 221 236 236 194 166 137 162 248 15 160 235 225 194 124 143 199 285 135 170 73 109 32 338 216 220 313 210 160 183 265 263 224 213 245 253 253 233 252
226 218 221 214 213 207 207 200 229 267 216 146 117 142 263 218 191 155 145 342 97 119 90 157 114 145 112 143 201 203 205 216 205 236 183 239 256 266 288 231 239 258 251 257 237
229 219 215 216 213 210 190 149 147 225 218 235 158 205 119 168 108 146 134 103 56 120 170 191 188 208 191 200 158 140 176 193 236 260 203 240 246 257 254 266 271 262 261 253 254
225 221 213 215 209 212 181 205 206 140 209 228 178 184 121 154 106 191 138 157 167 178 142 150 225 204 174 215 198 157 188 215 267 296 197 286 265 262 239 228 230 248 253 253 253
216 216 212 209 210 212 208 213 71 32 244 181 180 196 178 144 190 188 170 149 160 168 195 191 219 180 174 181 207 225 207 194 236 329 319 321 278 246 246 237 251 254 252 257 248
213 206 212 202 204 203 220 191 116 87 222 203 202 204 145 122 274 168 169 145 184 195 113 254 250 177 164 216 192 238 184 197 274 347 246 5 290 267 266 268 240 255 242 250 242
215 201 207 186 148 196 195 164 121 86 223 193 166 153 151 174 143 210 178 112 173 168 158 217 183 177 208 209 177 230 156 194 182 216 346 103 303 274 299 275 262 260 251 241 229
210 197 196 174 105 203 148 146 162 212 219 175 144 170 152 196 188 106 171 70 141 164 304 211 239 187 191 154 182 159 86 67 66 123 267 197 174 253 209 225 258 276 273 260 269
202 194 189 167 176 160 144 160 213 213 128 177 172 168 183 192 183 170 176 188 164 177 215 198 237 242 159 145 147 170 138 33 288 218 237 175 199 256 278 250 238 273 305 318 229
194 184 202 180 150 152 160 192 231 209 181 180 159 182 187 174 192 183 173 189 214 190 148 196 220 200 192 185 173 199 176 162 191 200 229 147 232 250 245 283 256 246 269 334 308
189 191 187 171 156 163 194 221 208 153 194 152 163 184 199 202 167 178 188 196 196 188 180 166 249 143 176 163 153 189 218 164 104 18 62 216 285 298 263 270 268 258 206 227 219
184 186 185 153 157 167 199 227 165 192 299 191 195 185 195 188 194 194 186 196 201 203 201 195 318 188 192 135 244 185 167 185 100 147 238 254 267 238 286 251 260 244 213 201 174
171 185 161 155 151 171 210 187 167 178 96 180 215 204 214 187 204 187 186 210 205 188 195 152 152 282 149 204 182 151 198 190 160 177 181 240 253 211 219 221 217 215 208 188 178
163 183 159 147 179 190 158 171 154 153 108 127 28 223 201 189 205 203 208 198 197 170 199 191 145 179 208 166 215 208 204 198 187 218 232 113 261 222 224 238 218 209 203 185 175
162 129 164 156 186 170 359 168 167 135 168 161 171 214 211 211 213 201 214 231 191 184 191 176 201 191 1 352 239 205 214 209 212 67 210 182 257 337 246 240 237 215 200 175 163
156 151 163 173 141 165 148 200 185 209 161 146 164 127 209 231 230 179 212 188 192 208 198 170 211 212 222 221 150 195 203 208 207 219 231 220 251 233 238 240 268 246 176 148 171
170 156 186 171 199 187 170 163 179 168 197 149 77 174 179 270 232 220 149 196 251 207 205 198 219 218 232 234 181 205 212 209 209 221 219 234 233 251 216 229 246 180 160 149 177
136 145 157 178 167 166 179 193 185 178 161 202 194 196 189 201 209 196 142 181 207 217 223 212 245 213 235 236 214 221 213 218 219 227 229 244 249 252 204 223 214 195 172 200 204
138 51 151 159 176 181 203 177 193 174 227 193 209 122 198 213 211 225 185 3 161 151 208 210 225 203 222 226 231 237 219 213 218 228 223 231 237 245 232 220 214 194 208 214 209